[[{"header":{"parameterUnit":"m.s-1","parameterCategory":1,"la1":30.2991,"la2":30.254,"lo1":-89.0895,"lo2":-89.0444,"dy":0.0017,"dx":0.0017,"nx":28,"ny":28,"refTime":"2024-04-18T03:00:00:Z","depth":0,"parameterNumber":2,"parameterNumberName":"U-component_of_WINDS"},"data":[0,0,0,0,0,0,0,0,0,0,0,0,0,0,0,0,0,0,0,0,0,0,0,0,0,0,0,0,0,0,0,0,0,0,0,0,0,0,0,0,0,0,0,0,0,0,0,0,0,0,0,0,0,0,0,0,0,0,-3.1353,-3.1354,0,-3.1375,-3.1375,-3.1375,-3.1361,-3.136,-3.136,-3.1359,-3.1379,-3.138,-3.1381,0,0,0,0,0,0,0,0,0,0,0,0,0,-3.1297,-3.1298,-3.1353,-3.1354,-3.1354,-3.1375,-3.1375,-3.1375,-3.1361,-3.136,-3.1359,-3.1359,-3.1379,-3.138,-3.1381,0,0,0,0,0,0,0,0,0,0,0,0,0,-3.132,-3.1299,-3.1353,-3.1349,-3.1349,-3.1375,-3.1375,-3.1375,-3.1361,-3.136,-3.1359,-3.1358,-3.1378,-3.138,-3.1381,-3.1412,0,0,-3.1387,-3.1387,0,0,0,0,0,0,0,0,-3.1319,-3.1322,-3.135,-3.135,-3.1349,-3.1364,-3.1363,-3.1387,-3.1361,-3.1357,-3.1359,-3.1358,-3.1375,-3.1377,-3.1383,-3.1412,-3.1413,-3.1387,-3.1388,-3.1389,-3.1389,0,0,0,0,0,0,0,-3.1318,-3.1321,-3.1362,-3.135,-3.135,-3.1346,-3.1348,-3.1367,-3.1371,-3.1357,-3.1356,-3.1359,-3.1374,-3.1381,-3.1383,-3.1414,-3.1387,-3.1388,-3.1389,-3.139,-3.1468,-3.1469,0,0,0,0,0,0,-3.1317,-3.132,-3.1361,-3.1362,-3.1332,-3.1347,-3.135,-3.136,-3.1371,-3.1371,-3.136,-3.1358,-3.1379,-3.1381,-3.1384,-3.1419,-3.1389,-3.139,-3.1391,-3.1467,-3.1468,-3.1469,0,0,0,0,0,0,-3.1315,-3.132,-3.136,-3.1341,-3.1346,-3.1349,-3.1361,-3.1361,-3.1368,-3.1373,-3.1373,-3.1366,-3.1378,-3.1381,-3.1405,-3.1419,-3.1391,-3.1393,-3.1466,-3.1467,-3.1469,-3.1489,0,0,0,0,0,0,-3.1314,-3.132,-3.1332,-3.1341,-3.1347,-3.1381,-3.1362,-3.1362,-3.1371,-3.1369,-3.1379,-3.1379,-3.1378,-3.1402,-3.1406,-3.1421,-3.1394,-3.1464,-3.1466,-3.1468,-3.1487,-3.1491,-3.1495,0,0,0,0,0,-3.1312,-3.1337,-3.1333,-3.1338,-3.1362,-3.1382,-3.1385,-3.1384,-3.1373,-3.1384,-3.1387,-3.1379,-3.1417,-3.1405,-3.1409,-3.1425,-3.1463,-3.1466,-3.1468,-3.1485,-3.149,-3.1495,0,0,0,0,0,0,-3.1328,-3.1338,-3.1334,-3.1362,-3.1372,-3.138,-3.1394,-3.1389,-3.1401,-3.1399,-3.1395,-3.1398,-3.1422,-3.1426,-3.1412,-3.1454,-3.1438,-3.1442,-3.145,-3.1455,-3.1459,-3.1456,-3.1395,0,0,0,0,0,-3.1335,-3.1352,-3.1359,-3.1384,-3.1389,-3.1391,-3.14,-3.1397,-3.1407,-3.141,-3.1415,-3.1424,-3.1437,-3.1447,-3.146,-3.1488,-3.1489,-3.1501,-3.1505,-3.1508,-3.151,-3.1524,-3.1529,-3.1477,-3.1477,-3.1477,0,0,-3.135,-3.1357,-3.1367,-3.1387,-3.1394,-3.141,-3.1394,-3.1412,-3.1423,-3.1413,-3.1435,-3.1439,-3.1448,-3.1474,-3.1485,-3.1478,-3.1525,-3.1511,-3.1513,-3.1514,-3.1527,-3.1532,-3.1537,-3.1479,-3.1478,-3.1478,0,0,-3.1384,-3.1392,-3.1413,-3.142,-3.1431,-3.1432,-3.1438,-3.1447,-3.1449,-3.1471,-3.1463,-3.1477,-3.1501,-3.1508,-3.1514,-3.1551,-3.1544,-3.1556,-3.1575,-3.1589,-3.1593,-3.1596,-3.1608,-3.1613,-3.1558,-3.1558,-3.1559,0,-3.14,-3.1425,-3.1424,-3.1442,-3.145,-3.1442,-3.1463,-3.147,-3.1484,-3.149,-3.1482,-3.1511,-3.1517,-3.1544,-3.1553,-3.1559,-3.1564,-3.1554,-3.1592,-3.1596,-3.1599,-3.161,-3.1615,-3.156,-3.156,-3.1559,-3.1559,0,-3.1444,-3.1461,-3.1476,-3.1491,-3.1501,-3.152,-3.1521,-3.1532,-3.1529,-3.1531,-3.1553,-3.156,-3.1574,-3.158,-3.1578,-3.1607,-3.1601,-3.1593,-3.1577,-3.1605,-3.1616,-3.162,-3.1562,-3.1561,-3.1561,-3.156,0,0,-3.1488,-3.1502,-3.1508,-3.1514,-3.1525,-3.1538,-3.1557,-3.1571,-3.1579,-3.159,-3.1604,-3.1625,-3.1617,-3.1625,-3.1623,-3.1635,-3.1662,-3.1625,-3.1625,-3.163,-3.1693,-3.1698,-3.1703,-3.1658,-3.1659,-3.166,-3.1692,0,-3.1522,-3.1555,-3.1555,-3.1585,-3.16,-3.1592,-3.1608,-3.1617,-3.1619,-3.1632,-3.1634,-3.1648,-3.1638,-3.1642,-3.1654,-3.1657,-3.1675,-3.1654,-3.167,-3.1671,-3.1667,-3.1709,-3.1715,-3.1745,-3.1696,-3.1697,-3.1697,0,-3.1566,-3.1578,-3.161,-3.1619,-3.1625,-3.1639,-3.1652,-3.1664,-3.1673,-3.1674,-3.1683,-3.1679,-3.1697,-3.1682,-3.1705,-3.1692,-3.1698,-3.1701,-3.1702,-3.1702,-3.1685,-3.1709,-3.1755,-3.1759,-3.1704,-3.1703,-3.1703,0,-3.1593,-3.1618,-3.164,-3.1645,-3.1656,-3.1667,-3.1671,-3.168,-3.1688,-3.1699,-3.1704,-3.1717,-3.1724,-3.1733,-3.1732,-3.1722,-3.1756,-3.1741,-3.1756,-3.1756,-3.1763,-3.1762,-3.1808,-3.1769,-3.1769,-3.1769,-3.1769,0,-3.163,-3.165,-3.1652,-3.1665,-3.1687,-3.1686,-3.1706,-3.171,-3.1718,-3.1731,-3.1725,-3.1738,-3.1737,-3.1749,-3.1748,-3.1768,-3.1771,-3.1771,-3.1771,-3.1771,-3.1771,-3.1774,-3.1772,-3.177,-3.177,-3.177,-3.177,0,-3.1664,-3.1667,-3.169,-3.1699,-3.1701,-3.1716,-3.1723,-3.1735,-3.1738,-3.1754,-3.1758,-3.1761,-3.1775,-3.1776,-3.1792,-3.1792,-3.1815,-3.1812,-3.1812,-3.1811,-3.1825,-3.1823,-3.1874,-3.188,-3.1839,-3.1839,-3.1839,0,-3.1687,-3.1702,-3.1712,-3.1721,-3.1727,-3.1741,-3.175,-3.1749,-3.1758,-3.1769,-3.178,-3.1794,-3.1804,-3.1827,-3.183,-3.1842,-3.184,-3.1857,-3.1841,-3.1841,-3.1838,-3.1837,-3.1838,-3.1859,-3.186,-3.186,-3.186,0,-3.1727,-3.1728,-3.1741,-3.1754,-3.1764,-3.1774,-3.1784,-3.1791,-3.1792,-3.1802,-3.1817,-3.1825,-3.1842,-3.1855,-3.1867,-3.1871,-3.1865,-3.1865,-3.1869,-3.1869,-3.1867,-3.1867,-3.1818,-3.1864,-3.1863,-3.1863,-3.1863,-3.1863,-3.1755,-3.1768,-3.1777,-3.1791,-3.1798,-3.1807,-3.1819,-3.1822,-3.1835,-3.1848,-3.1848,-3.1863,-3.1871,-3.1887,-3.1892,-3.1904,-3.1898,-3.1904,-3.1905,-3.1906,-3.1907,-3.1867,-3.1906,-3.1906,-3.1906,-3.1906,-3.1906,0,-3.1794,-3.18,-3.1813,-3.1826,-3.1837,-3.1832,-3.1842,-3.1851,-3.1866,-3.1874,-3.1885,-3.1901,-3.1914,-3.1918,-3.193,-3.1939,-3.1936,-3.1942,-3.194,-3.1941,-3.1912,-3.1907,-3.1943,-3.1943,-3.1943,-3.1943,-3.1943,-3.1943,-3.1815,-3.1836,-3.1837,-3.186,-3.1866,-3.1881,-3.1887,-3.1895,-3.1902,-3.192,-3.1931,-3.1934,-3.194,-3.1953,-3.1964,-3.1965,-3.1969,-3.1975,-3.1975,-3.1947,-3.1943,-3.194,-3.1935,-3.1976,-3.1976,-3.2003,-3.2003,-3.2003]},{"header":{"parameterUnit":"m.s-1","parameterCategory":1,"la1":30.2991,"la2":30.254,"lo1":-89.0895,"lo2":-89.0444,"dy":0.0017,"dx":0.0017,"nx":28,"ny":28,"refTime":"2024-04-18T03:00:00:Z","depth":0,"parameterNumber":3,"parameterNumberName":"V-component_of_WINDS"},"data":[0,0,0,0,0,0,0,0,0,0,0,0,0,0,0,0,0,0,0,0,0,0,0,0,0,0,0,0,0,0,0,0,0,0,0,0,0,0,0,0,0,0,0,0,0,0,0,0,0,0,0,0,0,0,0,0,0,0,4.3332,4.3331,0,4.3314,4.3314,4.3314,4.3297,4.3297,4.3297,4.3296,4.3276,4.3275,4.3275,0,0,0,0,0,0,0,0,0,0,0,0,0,4.3349,4.3349,4.3332,4.3331,4.3331,4.3314,4.3314,4.3314,4.3297,4.3297,4.3297,4.3296,4.3276,4.3275,4.3275,0,0,0,0,0,0,0,0,0,0,0,0,0,4.3337,4.3349,4.3332,4.3321,4.332,4.3314,4.3314,4.3314,4.3297,4.3297,4.3296,4.3296,4.3276,4.3276,4.3275,4.3278,0,0,4.3273,4.3273,0,0,0,0,0,0,0,0,4.3338,4.3337,4.3323,4.3322,4.332,4.3308,4.3313,4.3302,4.3297,4.3306,4.3296,4.3296,4.3286,4.3285,4.3282,4.3277,4.3276,4.3273,4.3273,4.3273,4.3273,0,0,0,0,0,0,0,4.3339,4.3337,4.3325,4.3322,4.3321,4.3317,4.3315,4.3311,4.3298,4.3305,4.3304,4.3302,4.3286,4.3283,4.3282,4.3276,4.3273,4.3273,4.3273,4.3272,4.3274,4.3275,0,0,0,0,0,0,4.3342,4.3338,4.3325,4.3324,4.3329,4.3316,4.3314,4.3312,4.3298,4.3296,4.3302,4.3301,4.3284,4.3282,4.3281,4.3285,4.3273,4.3272,4.3272,4.3274,4.3275,4.3275,0,0,0,0,0,0,4.3342,4.3341,4.3326,4.3331,4.3329,4.3317,4.3314,4.3312,4.3309,4.3296,4.3293,4.3302,4.3284,4.3282,4.328,4.3284,4.3272,4.3272,4.3274,4.3274,4.3275,4.3292,0,0,0,0,0,0,4.3343,4.3341,4.3342,4.3331,4.3329,4.3325,4.3314,4.3312,4.3308,4.3307,4.3295,4.3293,4.3283,4.3281,4.3279,4.3283,4.3271,4.3273,4.3274,4.3275,4.329,4.3293,4.3294,0,0,0,0,0,4.3343,4.3346,4.3342,4.3341,4.333,4.3325,4.3324,4.3314,4.3309,4.331,4.3302,4.3293,4.3284,4.328,4.3279,4.3282,4.3273,4.3274,4.3274,4.329,4.3292,4.3294,0,0,0,0,0,0,4.3356,4.3345,4.334,4.3339,4.3334,4.3322,4.3323,4.3317,4.3311,4.331,4.3297,4.3295,4.3294,4.3288,4.3284,4.3286,4.3277,4.3278,4.3289,4.3292,4.3294,4.3295,4.3271,0,0,0,0,0,4.336,4.3358,4.3347,4.3348,4.3345,4.3335,4.3333,4.3326,4.3319,4.3316,4.3308,4.3301,4.3297,4.3294,4.3289,4.329,4.3288,4.3292,4.3294,4.3296,4.3296,4.3297,4.3299,4.3278,4.3278,4.3278,0,0,4.3365,4.3359,4.3358,4.335,4.3345,4.3343,4.3333,4.3331,4.3329,4.3315,4.3313,4.3308,4.3299,4.3299,4.3298,4.3294,4.3302,4.3297,4.3298,4.3297,4.3298,4.33,4.3302,4.3278,4.3278,4.3278,0,0,4.3375,4.337,4.337,4.3366,4.3359,4.3352,4.3353,4.3343,4.3339,4.3337,4.3328,4.3326,4.3318,4.3313,4.3309,4.332,4.3312,4.3319,4.3329,4.333,4.3332,4.3333,4.3338,4.3339,4.332,4.332,4.332,0,4.3382,4.338,4.3371,4.337,4.3368,4.3357,4.3358,4.3354,4.3345,4.3344,4.3339,4.3331,4.3325,4.3324,4.3327,4.3324,4.3325,4.332,4.3333,4.3334,4.3335,4.3339,4.3341,4.3321,4.3321,4.3321,4.332,0,4.339,4.3388,4.339,4.3384,4.3381,4.3381,4.3373,4.3371,4.3366,4.336,4.3359,4.3351,4.3346,4.3345,4.3338,4.3344,4.3342,4.3335,4.3326,4.3338,4.3342,4.3343,4.3322,4.3322,4.3321,4.3321,0,0,4.3405,4.3396,4.3397,4.3395,4.3387,4.3386,4.3386,4.3382,4.3381,4.3376,4.3376,4.3372,4.3367,4.3363,4.3356,4.3357,4.3368,4.3351,4.335,4.3354,4.3374,4.3379,4.3381,4.3363,4.3363,4.3363,4.3375,0,4.3413,4.3413,4.3407,4.3409,4.3408,4.3399,4.3399,4.3395,4.339,4.3389,4.3383,4.338,4.3373,4.3371,4.3373,4.3366,4.3371,4.3365,4.3362,4.3362,4.3364,4.3382,4.3387,4.3398,4.3376,4.3376,4.3377,0,4.3422,4.342,4.3422,4.3417,4.3416,4.3416,4.3413,4.3412,4.3407,4.3403,4.3401,4.3394,4.3394,4.3387,4.3387,4.3383,4.3382,4.3379,4.3379,4.3378,4.3369,4.3381,4.3401,4.3402,4.3379,4.3378,4.3378,0,4.3433,4.3431,4.3432,4.343,4.3424,4.3425,4.3422,4.3417,4.3416,4.3413,4.3412,4.3409,4.3407,4.3405,4.3398,4.3393,4.3399,4.3391,4.3396,4.3396,4.3396,4.3396,4.3416,4.3397,4.3397,4.3397,4.3397,0,4.3443,4.3444,4.3437,4.3438,4.344,4.3433,4.3435,4.3432,4.3428,4.3428,4.342,4.3421,4.3411,4.3411,4.3405,4.3407,4.3406,4.3403,4.3401,4.3403,4.3404,4.3401,4.34,4.3397,4.3397,4.3397,4.3397,0,4.3455,4.345,4.3451,4.3446,4.3445,4.3447,4.3442,4.3443,4.3439,4.3439,4.3439,4.3432,4.3431,4.3424,4.3421,4.3417,4.3421,4.3418,4.3422,4.3421,4.3427,4.3426,4.3445,4.3447,4.3427,4.3427,4.3427,0,4.3461,4.3462,4.3458,4.3458,4.3456,4.3456,4.3456,4.3449,4.3449,4.3445,4.3447,4.3445,4.3444,4.3443,4.3437,4.3435,4.3432,4.3439,4.3431,4.3434,4.3432,4.3432,4.3432,4.344,4.344,4.3441,4.3441,0,4.3472,4.3471,4.347,4.3469,4.3469,4.3468,4.3466,4.3467,4.346,4.346,4.346,4.3459,4.3457,4.3456,4.3454,4.3451,4.3445,4.3444,4.3445,4.3446,4.3449,4.3448,4.3426,4.3443,4.3442,4.3442,4.3442,4.3442,4.3482,4.3483,4.3481,4.3481,4.348,4.3479,4.348,4.3477,4.3477,4.3475,4.3472,4.3473,4.347,4.3466,4.3464,4.3465,4.3461,4.3462,4.3463,4.3463,4.3464,4.345,4.3464,4.3464,4.3464,4.3464,4.3464,0,4.3493,4.3492,4.3492,4.3491,4.3491,4.3488,4.3486,4.3487,4.3488,4.3486,4.3485,4.3486,4.3486,4.3481,4.348,4.3482,4.3479,4.3482,4.3481,4.3481,4.3467,4.3467,4.3484,4.3484,4.3484,4.3484,4.3484,4.3484,4.3499,4.3501,4.35,4.3502,4.3501,4.3502,4.3502,4.3501,4.35,4.3501,4.3501,4.3499,4.3497,4.3496,4.3496,4.3495,4.3495,4.3498,4.3496,4.3483,4.3481,4.3479,4.3479,4.3498,4.3498,4.3509,4.3509,4.351]}]]